Simultaneous Nadir Overpasses (SNOs) Predictions

Prediction of SNOs between GOES-16 and TERRA Satellite Orbit:

Table of predicted SNOs for the next 14.0 days since TLE Epoch: 4/15/2023
Index Date Time (GOES-16) GOES-16 Lat,Lon TERRA Lat,Lon Distance(km) Time Diff (sec)
1 04/16/2023 03:00:22 -0.05, -75.21 0.34, -73.45 200.82 80
2 04/16/2023 15:20:36 0.05, -75.23 0.73, -78.36 356.34 80
3 04/18/2023 15:07:06 0.05, -75.25 -0.10, -74.46 90.17 80
4 04/19/2023 03:27:28 -0.05, -75.25 -0.95, -79.40 472.93 80
5 04/21/2023 03:11:18 -0.05, -75.28 -0.09, -75.50 25.56 80
6 04/23/2023 02:52:27 -0.05, -75.31 0.73, -71.60 422.25 80
7 04/23/2023 15:12:41 0.04, -75.33 0.32, -76.51 134.33 80
8 04/25/2023 14:56:30 0.04, -75.37 -0.54, -72.61 314.22 80
9 04/26/2023 03:19:32 -0.04, -75.37 -0.49, -77.56 248.31 80
10 04/28/2023 03:00:40 -0.03, -75.41 0.34, -73.64 201.18 80
11 04/28/2023 15:20:54 0.03, -75.44 0.69, -78.56 354.97 80
